Regional Weather Roundup
Issued by NWS

Home | Current Version | Previous Version | Graphics & Text | Print | Product List | Glossary On
Versions: 1 2 3 4 5 6 7 8 9 10 11 12 13 14 15 16 17 18 19 20 21 22 23 24 25 26 27 28 29 30 31 32 33 34 35 36 37 38 39 40 41 42 43 44 45 46
000
ASUS45 KTFX 280510
RWRMT
MONTANA REGIONAL WEATHER ROUNDUP
NATIONAL WEATHER SERVICE GREAT FALLS MT
1100 PM MDT MON JUL 27 2015

NOTE: "FAIR" INDICATES FEW OR NO CLOUDS BELOW 12000 FEET WITH NO
SIGNIFICANT WEATHER AND/OR OBSTRUCTIONS TO VISIBILITY.

MTZ001>007-043-280600-
WEST OF THE DIVIDE

CITY           SKY/WX    TMP DP  RH WIND       PRES   REMARKS
KALISPELL      MOCLDY    53  47  79 S7        30.09R
MISSOULA       CLOUDY    50  48  93 S7        30.16S
BUTTE          CLOUDY    46  40  79 NW5       30.18R
MULLAN PASS    RAIN      40  39  97 VRB3      30.21R
DEER LODGE       N/A     48  43  81 SE3       30.19R
EUREKA           N/A     50  46  87 CALM      30.09R
HAMILTON         N/A     50  45  81 S3        30.18R
LIBBY            N/A     52  46  82 E6        30.11R
RONAN            N/A     51  49  93 SE5       30.16R
$$

MTZ008-052>055-280600-
SOUTHWEST MONTANA

CITY           SKY/WX    TMP DP  RH WIND       PRES   REMARKS
BOZEMAN        CLOUDY    48  43  82 SW8       30.14R
DILLON         MOCLDY    43  39  86 SW10      30.19R
W YELLOWSTONE  MOCLDY    39  37  93 SW9       30.22R
TWIN BRIDGES     N/A     46  39  76 E6        30.16R
$$

MTZ009-010-012-014-046-048-049-054-280600-
EAST SLOPES AND CENTRAL MONTANA

CITY           SKY/WX    TMP DP  RH WIND       PRES   REMARKS
CUT BANK       LGT RAIN  50  47  89 W14       30.00R
GREAT FALLS    LGT RAIN  50  49  96 SW13      30.00R
MALMSTROM AFB  LGT RAIN  51  49  92 SW17      30.01R
HELENA         CLOUDY    53  42  66 W17G29    30.07S
$$

MTZ011-013-016-021-045-047-050-051-280600-
NORTH CENTRAL MONTANA

CITY           SKY/WX    TMP DP  RH WIND       PRES   REMARKS
HAVRE          CLOUDY    56  54  93 NW7       29.85R
LEWISTOWN      LGT RAIN  50  46  86 W17       29.97S
CHINOOK          N/A     57  55  94 W13       29.80F
FORT BENTON      N/A     54  52  94 SW13      29.97S
$$

MTZ017>020-022>027-061-062-280600-
NORTHEAST MONTANA

CITY           SKY/WX    TMP DP  RH WIND       PRES   REMARKS
GLASGOW        LGT RAIN  57  55  93 NW13      29.68F
JORDAN           N/A     56  53  90 W20G28    29.79R
SIDNEY         CLOUDY    63  57  82 W30G39    29.58F
WOLF POINT     LGT RAIN  62  58  86 W17       29.64F
PLENTYWOOD       N/A     66  63  88 W3        29.53F
POPLAR           N/A     63  63 100 W15G23    29.61F
SCOBEY           N/A     60  55  83 W14       29.60F
$$

MTZ028>42-056>058-280600-
SOUTHCENTRAL AND SOUTHEAST MONTANA

CITY           SKY/WX    TMP DP  RH WIND       PRES   REMARKS
BAKER          LGT RAIN  58  54  86 W14       29.79S
BILLINGS       PTCLDY    55  46  71 W10       29.98R
LIVINGSTON     CLOUDY    52  41  66 W22       30.08R
MILES CITY     LGT RAIN  56  56 100 W21G29    29.85R FOG
FORSYTH          N/A     55  52  88 W14G22    29.86F
LAUREL           N/A     55  42  61 W17       29.96S
ROUNDUP          N/A     55  45  69 CALM      29.86R
$$

REGIONAL REPORTS...DAKOTAS

CITY           SKY/WX    TMP DP  RH WIND       PRES   REMARKS
WILLISTON      LGT RAIN  66  63  90 SW23G35   29.64R
MINOT          LGT RAIN  81  59  47 S23G35    29.58F
DICKINSON      CLOUDY    63  59  87 W16G24    29.70F
BEACH          MOCLDY    59  59 100 NW14      29.75S
CROSBY         FAIR      68  63  83 S16G24    29.55F
BISMARCK       LGT RAIN  72  62  71 S10G20    29.62F
GRAND FORKS    PTCLDY    76  71  85 SE10      29.72F
FARGO          CLEAR     79  72  79 SE16G24   29.75F
BUFFALO SD       N/A     59  53  80 NW25G39   29.73R
RAPID CITY     PTCLDY    64  58  80 N18       29.76R
$$

REGIONAL REPORTS...WYOMING/IDAHO/WASHINGTON

CITY           SKY/WX    TMP DP  RH WIND       PRES   REMARKS
GILLETTE       CLEAR     51  46  83 W5        29.95R
SHERIDAN       CLEAR     53  45  74 NW7       29.96R
BUFFALO WY     CLEAR     51  46  83 N15G24    29.98R
CODY           PTCLDY    55  34  44 SW21G33   30.04S
YELLOWSTONE LA   N/A     36  34  92 CALM      30.26R
IDAHO FALLS    CLOUDY    51  45  79 CALM      30.20S
SALMON         CLOUDY    50  43  76 CALM      30.24R
BOISE          CLEAR     64  32  30 N5        30.15R
SPOKANE        PTCLDY    62  40  44 SW8       30.10R
$$

REGIONAL REPORTS...ALBERTA

CITY           SKY/WX    TMP DP  RH WIND       PRES   REMARKS
EDMONTON       CLEAR     59  45  58 W5        29.92F
CALGARY        PTCLDY    55  43  62 NW3       30.02S
LETHBRIDGE     PTCLDY    55  46  71 W17       29.96F
MEDICINE HAT   CLOUDY    59  54  82 NW14      29.86R
WATERTON GATE    N/A     48  45  87 S9          N/A
MILK RIVER       N/A     54  48  82 NW20G26     N/A
$$

REGIONAL REPORTS...SASKATCHEWAN

CITY           SKY/WX    TMP DP  RH WIND       PRES   REMARKS
SWIFT CURRENT  RAIN      59 N/A N/A N20       29.74R
REGINA         TSTM      61  59  94 SE15G25   29.64R
SASKATOON      LGT RAIN  59  59 100 N13G21    29.81F
CYPRESS HILLS    N/A     50  48  93 N12G22      N/A
VAL MARIE        N/A     57  54  88 N17         N/A
ROCKGLEN         N/A     55  55 100 NW22G29     N/A
ASSINIBOIA       N/A     54  50  87 W3          N/A
$$



USA.gov is the U.S. government's official web portal to all federal, state and local government web resources and services.